Regional Weather Roundup
Issued by NWS

Home | Current Version | Previous Version | Graphics & Text | Print | Product List | Glossary Off
Versions: 1 2 3 4 5 6 7 8 9 10 11 12 13 14 15 16 17 18 19 20 21 22 23 24 25 26 27 28 29 30 31 32 33 34 35 36 37 38 39 40 41 42 43 44 45 46 47 48 49 50

000
ASUS43 KMKX 060121
RWRWI

WISCONSIN REGIONAL WEATHER ROUNDUP
NATIONAL WEATHER SERVICE MILWAUKEE/SULLIVAN WI
800 PM CDT TUE MAY 05 2015

NOTE: "FAIR" INDICATES FEW OR NO CLOUDS BELOW 12,000 FEET WITH NO
SIGNIFICANT WEATHER AND/OR OBSTRUCTIONS TO VISIBILITY.

WIZ001-002-006>008-014>016-023>028-060200-
NORTHWEST WISCONSIN

CITY           SKY/WX    TMP DP  RH WIND       PRES   REMARKS
SUPERIOR ARPT  PTCLDY    47  33  59 E7        30.16R
ASHLAND        CLEAR     47  35  63 N6        30.18R
HAYWARD        CLEAR     65  27  23 S8        30.16S
SIREN          CLEAR     66  31  26 SE9       30.14R
CUMBERLAND     MOCLDY    63  28  27 SE10      30.16R
RICE LAKE      CLOUDY    64  29  27 SE13      30.18R
CHETEK         PTCLDY    62  32  32 E9        30.17R
LADYSMITH      PTCLDY    64  30  28 SE7       30.20S
EAU CLAIRE     CLOUDY    63  41  44 SE18      30.17R
MENOMONIE      CLOUDY    63  44  49 SE10      30.17R
NEW RICHMOND   PTCLDY    62  42  48 SE9       30.15R
OSCEOLA        PTCLDY    64  40  42 SE12G17   30.16S
$$

WIZ003>005-009-010-017-018-060200-
NORTH CENTRAL WISCONSIN

CITY           SKY/WX    TMP DP  RH WIND       PRES   REMARKS
MANITOWISH WTR CLEAR     62  30  30 S6        30.20R
ARBOR VITAE    CLEAR     62  26  25 S9        30.21R
WOODRUFF       CLEAR     62  26  25 S9        30.21R
RHINELANDER    PTCLDY    61  25  25 S8        30.23R
EAGLE RIVER    PTCLDY    61  25  25 S5        30.22R
LAND O LAKES   CLEAR     63  29  27 S5        30.22R
PHILLIPS       CLEAR     64  27  25 SE7       30.19S
TOMAHAWK       MOCLDY    59  26  28 CALM      30.23R
MEDFORD        MOCLDY    58  26  28 SE6       30.21R
MERRILL        MOCLDY    60  26  27 SE8       30.23S
$$

WIZ029-030-035-036-043>047-060200-
CENTRAL WISCONSIN

CITY           SKY/WX    TMP DP  RH WIND       PRES   REMARKS
WAUSAU         CLOUDY    61  16  17 SE10      30.21S
MOSINEE        CLEAR     59  23  25 E3        30.23S
MARSHFIELD     CLOUDY    60  35  39 SE8       30.21R
STEVENS POINT  CLOUDY    58  29  32 SE7       30.22S
WAUPACA        CLOUDY    60  46  59 SE6       30.23R
WAUTOMA        CLOUDY    57  49  75 E6        30.23S
WISC RAPIDS    CLOUDY    61  34  36 SE9       30.22S
CAMP DOUGLAS   CLOUDY    55  52  88 E10       30.19S
$$

WIZ011>013-019>022-031-037>040-048>050-060200-
NORTHEAST WISCONSIN

CITY           SKY/WX    TMP DP  RH WIND       PRES   REMARKS
ANTIGO         CLOUDY    56  31  38 SE6       30.24S
SHAWANO        CLOUDY    60  24  25 E5        30.24S
OCONTO         CLOUDY    58  32  38 CALM      30.24S
STURGEON BAY   MOCLDY    54  36  50 CALM      30.27S
GREEN BAY      CLOUDY    59  27  29 E3        30.24S
MANITOWOC      CLOUDY    51  39  63 S3        30.25S
APPLETON       MOCLDY    57  36  44 SE7       30.24
CLINTONVILLE   CLOUDY    61  21  21 E3        30.23S
OSHKOSH        CLOUDY    56  47  71 S5        30.23S
$$

WIZ032>034-041-042-053>061-060200-
SOUTHWEST WISCONSIN

CITY           SKY/WX    TMP DP  RH WIND       PRES   REMARKS
LA CROSSE      LGT RAIN  56  54  93 CALM      30.18R FOG
SPARTA         CLOUDY    55  48  76 E9        30.20S
VIROQUA        CLOUDY    53  53 100 E10       30.18R
BOSCOBEL       LGT RAIN  55  53  93 CALM      30.19R FOG
PRAIRIE DU CHI CLOUDY    55  54  97 E5        30.16S
PLATTEVILLE    CLOUDY    55  54  94 E13       30.17S
$$

WIZ056-057-062-063-064-067-068-060200-
SOUTH CENTRAL WISCONSIN

CITY           SKY/WX    TMP DP  RH WIND       PRES   REMARKS
REEDSBURG      CLOUDY    54  51  89 E5        30.19S
BARABOO/DELLS  NOT AVBL
LONE ROCK      CLOUDY    55  51  86 E9        30.19S
MINERAL POINT  DRIZZLE   55  54  94 E9        30.19R
MADISON        CLOUDY    54  49  83 E9        30.21R
MIDDLETON      CLOUDY    55  50  83 E9        30.21S
WATERTOWN      CLOUDY    52  49  90 E8        30.22R
MONROE         CLOUDY    52  50  93 NE8       30.19S FOG
JANESVILLE     CLOUDY    52  50  93 E14       30.20R FOG
$$

WIZ051-052-058>065-066-070>072-060200-
SOUTHEAST WISCONSIN

CITY           SKY/WX    TMP DP  RH WIND       PRES   REMARKS
MILWAUKEE      CLOUDY    47  42  83 NE5       30.24S
WAUKESHA       PTCLDY    48  45  87 E8        30.24S
MILWAUKEE/TIMM PTCLDY    48  43  81 CALM      30.25F
RACINE         CLOUDY    46  42  86 NE7       30.25S
BURLINGTON     CLOUDY    47  46  97 E6        30.23R FOG
KENOSHA        CLOUDY    48  46  93 E9        30.23S
FOND DU LAC    CLOUDY    54  46  74 SE6       30.23S
SHEBOYGAN      CLOUDY    53  43  68 CALM      30.24S
WEST BEND      CLOUDY    50  43  76 CALM      30.24R
JUNEAU         CLOUDY    52  46  80 E6        30.24S
$$

LSZ147-162-060200-
LAKE SUPERIOR

STATION/POSITION TIME  TEMP    WIND        PRES    WAVE
                       AIR SEA DIR/SP/G            HT/PER
                 (UTC) (F)     (DEG/KT/KT) (MB)    (FT/S)
W MID LAKE BUOY  0050   42 36   60/ 12/ 12 1022.6F   1
DEVILS ISLAND    0100   47     120/ 11/ 13 1022.0F
PORT WING        0040   44      30/ 10/ 13 1021.0R
SAXON HARBOR     0000   50     310/  3/  5 1021.0S
$$

LMZ867-665-643>646-060200-
LAKE MICHIGAN

STATION/POSITION TIME  TEMP    WIND        PRES    WAVE
                       AIR SEA DIR/SP/G            HT/PER
                 (UTC) (F)     (DEG/KT/KT) (MB)    (FT/S)
CHAMBERS ISLAND  0000   51      CALM  /  2 1024.7F
NORTHPORT PIER   0000   49     330/  3/  4 1024.0F
SISTER BAY       0017             CALM       N/A
KEWAUNEE LAKESHO 0100   48      40/  6/  7 1023.4R
SHEBOYGAN LAKESH 0100   44      20/  3/  3 1025.0S
PORT WASHINGTON  0000   47      40/  2/  3 1024.7S
ATWATER BUOY     0100   44      20/  6/  8 1025.3R
MILWAUKEE LAKESH 0100   47      40/  4/  5   N/A
KENOSHA   LAKESH 0100   45      30/  8/ 11 1023.7S
$$

TC  - TEMPERATURE IN CELSIUS
VSB - VISIBILITY IN STATUTE MILES
WCI - WIND CHILL INDEX
HX  - HEAT INDEX




USA.gov is the U.S. government's official web portal to all federal, state and local government web resources and services.